Time,TemperatureF,DewpointF,PressureIn,WindDirection,WindDirectionDegrees,WindSpeedMPH,WindSpeedGustMPH,Humidity,HourlyPrecipIn,Conditions,Clouds,dailyrainin,SoftwareType,DateUTC
2013-05-26 00:00:00,55.1,45.5,30.20,East,83,11.0,22.0,70,0.00,,,0.01,VWS V14.01,2013-05-26 05:00:00,
2013-05-26 00:05:00,55.0,45.0,30.20,East,88,7.0,16.0,69,0.00,,,0.00,VWS V14.01,2013-05-26 05:05:00,
2013-05-26 00:10:00,55.0,44.7,30.20,East,94,15.0,23.0,68,0.00,,,0.00,VWS V14.01,2013-05-26 05:10:00,
2013-05-26 00:15:00,54.9,44.2,30.20,East,90,5.0,23.0,67,0.00,,,0.00,VWS V14.01,2013-05-26 05:15:00,
2013-05-26 00:20:00,54.6,43.9,30.20,East,87,13.0,23.0,67,0.00,,,0.00,VWS V14.01,2013-05-26 05:20:00,
2013-05-26 00:25:00,54.4,43.7,30.19,ESE,107,11.0,23.0,67,0.00,,,0.00,VWS V14.01,2013-05-26 05:25:00,
2013-05-26 00:30:00,54.4,43.7,30.20,East,95,6.0,23.0,67,0.00,,,0.00,VWS V14.01,2013-05-26 05:30:00,
2013-05-26 00:35:00,54.3,43.6,30.20,ENE,78,7.0,14.0,67,0.00,,,0.00,VWS V14.01,2013-05-26 05:35:00,
2013-05-26 00:40:00,54.4,43.7,30.19,ESE,102,9.0,22.0,67,0.00,,,0.00,VWS V14.01,2013-05-26 05:40:00,
2013-05-26 00:45:00,54.5,43.4,30.19,East,86,19.0,22.0,66,0.00,,,0.00,VWS V14.01,2013-05-26 05:45:00,
2013-05-26 00:50:00,54.6,43.5,30.19,ESE,113,19.0,22.0,66,0.00,,,0.00,VWS V14.01,2013-05-26 05:50:00,
2013-05-26 00:55:00,54.6,43.5,30.18,East,92,3.0,22.0,66,0.00,,,0.00,VWS V14.01,2013-05-26 05:55:00,
2013-05-26 01:00:00,54.5,43.4,30.18,ESE,105,5.0,22.0,66,0.00,,,0.00,VWS V14.01,2013-05-26 06:00:00,
2013-05-26 01:05:00,54.6,43.9,30.19,East,79,8.0,15.0,67,0.00,,,0.00,VWS V14.01,2013-05-26 06:05:00,
2013-05-26 01:10:00,54.5,43.8,30.19,East,97,9.0,16.0,67,0.00,,,0.00,VWS V14.01,2013-05-26 06:10:00,
2013-05-26 01:16:00,54.6,43.9,30.20,ESE,107,7.0,18.0,67,0.00,,,0.00,VWS V14.01,2013-05-26 06:16:00,
2013-05-26 01:21:00,54.7,44.0,30.20,ESE,116,10.0,18.0,67,0.00,,,0.00,VWS V14.01,2013-05-26 06:21:00,
2013-05-26 01:26:00,54.7,44.0,30.19,East,92,10.0,18.0,67,0.00,,,0.00,VWS V14.01,2013-05-26 06:26:00,
2013-05-26 01:30:00,54.6,43.9,30.19,East,96,13.0,18.0,67,0.00,,,0.00,VWS V14.01,2013-05-26 06:30:00,
2013-05-26 01:31:00,54.6,43.9,30.19,East,96,13.0,18.0,67,0.00,,,0.00,VWS V14.01,2013-05-26 06:31:00,
2013-05-26 01:36:00,54.6,43.9,30.19,East,85,10.0,16.0,67,0.00,,,0.00,VWS V14.01,2013-05-26 06:36:00,
2013-05-26 01:41:00,54.6,43.9,30.19,East,98,4.0,17.0,67,0.00,,,0.00,VWS V14.01,2013-05-26 06:41:00,
2013-05-26 01:46:00,54.6,43.9,30.19,East,79,5.0,17.0,67,0.00,,,0.00,VWS V14.01,2013-05-26 06:46:00,
2013-05-26 01:51:00,54.5,43.8,30.18,ENE,77,7.0,17.0,67,0.00,,,0.00,VWS V14.01,2013-05-26 06:51:00,
2013-05-26 01:56:00,54.4,43.7,30.18,East,90,13.0,17.0,67,0.00,,,0.00,VWS V14.01,2013-05-26 06:56:00,
2013-05-26 02:00:00,54.3,44.0,30.19,East,83,4.0,17.0,68,0.00,,,0.00,VWS V14.01,2013-05-26 07:00:00,
2013-05-26 02:01:00,54.4,44.1,30.19,East,94,7.0,10.0,68,0.00,,,0.00,VWS V14.01,2013-05-26 07:01:00,
2013-05-26 02:06:00,54.3,43.6,30.19,East,93,2.0,17.0,67,0.00,,,0.00,VWS V14.01,2013-05-26 07:06:00,
2013-05-26 02:11:00,54.3,44.0,30.18,ESE,121,4.0,17.0,68,0.00,,,0.00,VWS V14.01,2013-05-26 07:11:00,
2013-05-26 02:16:00,54.1,43.8,30.18,ESE,106,6.0,17.0,68,0.00,,,0.00,VWS V14.01,2013-05-26 07:16:00,
2013-05-26 02:21:00,53.9,43.6,30.18,East,96,5.0,17.0,68,0.00,,,0.00,VWS V14.01,2013-05-26 07:21:00,
2013-05-26 02:26:00,53.8,43.5,30.17,East,93,9.0,17.0,68,0.00,,,0.00,VWS V14.01,2013-05-26 07:26:00,
2013-05-26 02:30:00,53.6,43.3,30.17,East,92,2.0,17.0,68,0.00,,,0.00,VWS V14.01,2013-05-26 07:30:00,
2013-05-26 02:31:00,53.6,43.7,30.16,East,94,2.0,3.0,69,0.00,,,0.00,VWS V14.01,2013-05-26 07:31:00,
2013-05-26 02:36:00,53.4,43.5,30.16,ENE,71,0.0,11.0,69,0.00,,,0.00,VWS V14.01,2013-05-26 07:36:00,
2013-05-26 02:41:00,53.1,43.2,30.17,East,88,12.0,16.0,69,0.00,,,0.00,VWS V14.01,2013-05-26 07:41:00,
2013-05-26 02:46:00,53.0,43.5,30.18,East,85,6.0,16.0,70,0.00,,,0.00,VWS V14.01,2013-05-26 07:46:00,
2013-05-26 02:51:00,52.8,43.3,30.17,East,92,0.0,16.0,70,0.00,,,0.00,VWS V14.01,2013-05-26 07:51:00,
2013-05-26 02:56:00,52.7,43.2,30.16,ENE,78,5.0,16.0,70,0.00,,,0.00,VWS V14.01,2013-05-26 07:56:00,
2013-05-26 03:00:00,52.7,43.2,30.17,East,87,8.0,16.0,70,0.00,,,0.00,VWS V14.01,2013-05-26 08:00:00,
2013-05-26 03:01:00,52.7,43.2,30.17,East,93,6.0,10.0,70,0.00,,,0.00,VWS V14.01,2013-05-26 08:01:00,
2013-05-26 03:06:00,52.7,43.6,30.17,East,100,7.0,12.0,71,0.00,,,0.00,VWS V14.01,2013-05-26 08:06:00,
2013-05-26 03:11:00,52.7,43.6,30.17,East,96,3.0,12.0,71,0.00,,,0.00,VWS V14.01,2013-05-26 08:11:00,
2013-05-26 03:16:00,52.6,43.5,30.16,SE,129,7.0,14.0,71,0.00,,,0.00,VWS V14.01,2013-05-26 08:16:00,
2013-05-26 03:21:00,52.5,43.4,30.16,East,85,5.0,14.0,71,0.00,,,0.00,VWS V14.01,2013-05-26 08:21:00,
2013-05-26 03:26:00,52.4,43.3,30.16,East,99,3.0,14.0,71,0.00,,,0.00,VWS V14.01,2013-05-26 08:26:00,
2013-05-26 03:30:00,52.3,43.2,30.16,ENE,73,3.0,14.0,71,0.00,,,0.00,VWS V14.01,2013-05-26 08:30:00,
2013-05-26 03:32:00,52.3,43.2,30.16,East,92,3.0,12.0,71,0.00,,,0.00,VWS V14.01,2013-05-26 08:32:00,
2013-05-26 03:37:00,52.3,43.2,30.16,East,98,2.0,14.0,71,0.00,,,0.00,VWS V14.01,2013-05-26 08:37:00,
2013-05-26 03:42:00,52.3,43.2,30.16,East,96,6.0,14.0,71,0.00,,,0.00,VWS V14.01,2013-05-26 08:42:00,
2013-05-26 03:47:00,52.3,43.2,30.15,ENE,67,4.0,14.0,71,0.00,,,0.00,VWS V14.01,2013-05-26 08:47:00,
2013-05-26 03:52:00,52.3,43.2,30.15,ESE,104,5.0,18.0,71,0.00,,,0.00,VWS V14.01,2013-05-26 08:52:00,
2013-05-26 03:57:00,52.3,43.2,30.15,East,87,12.0,18.0,71,0.00,,,0.00,VWS V14.01,2013-05-26 08:57:00,
2013-05-26 04:00:00,52.4,42.9,30.15,East,88,6.0,19.0,70,0.00,,,0.00,VWS V14.01,2013-05-26 09:00:00,
2013-05-26 04:02:00,52.4,43.3,30.15,ESE,104,5.0,11.0,71,0.00,,,0.00,VWS V14.01,2013-05-26 09:02:00,
2013-05-26 04:07:00,52.4,43.3,30.15,East,96,11.0,14.0,71,0.00,,,0.00,VWS V14.01,2013-05-26 09:07:00,
2013-05-26 04:12:00,52.4,43.3,30.16,East,98,10.0,16.0,71,0.00,,,0.00,VWS V14.01,2013-05-26 09:12:00,
2013-05-26 04:17:00,52.4,42.9,30.16,East,94,9.0,16.0,70,0.00,,,0.00,VWS V14.01,2013-05-26 09:17:00,
2013-05-26 04:22:00,52.4,42.9,30.16,East,92,3.0,16.0,70,0.00,,,0.00,VWS V14.01,2013-05-26 09:22:00,
2013-05-26 04:27:00,52.3,42.8,30.17,ENE,58,2.0,16.0,70,0.00,,,0.00,VWS V14.01,2013-05-26 09:27:00,
2013-05-26 04:30:00,52.3,42.8,30.18,East,89,10.0,16.0,70,0.00,,,0.00,VWS V14.01,2013-05-26 09:30:00,
2013-05-26 04:32:00,52.3,42.8,30.18,East,80,5.0,16.0,70,0.00,,,0.00,VWS V14.01,2013-05-26 09:32:00,
2013-05-26 04:37:00,52.5,43.0,30.18,East,100,5.0,16.0,70,0.00,,,0.00,VWS V14.01,2013-05-26 09:37:00,
2013-05-26 04:42:00,52.5,43.0,30.18,East,87,3.0,16.0,70,0.00,,,0.00,VWS V14.01,2013-05-26 09:42:00,
2013-05-26 04:47:00,52.6,42.7,30.19,East,90,6.0,19.0,69,0.00,,,0.00,VWS V14.01,2013-05-26 09:47:00,
2013-05-26 04:52:00,52.6,42.7,30.19,East,85,4.0,19.0,69,0.00,,,0.00,VWS V14.01,2013-05-26 09:52:00,
2013-05-26 04:57:00,52.5,42.6,30.20,ESE,103,6.0,19.0,69,0.00,,,0.00,VWS V14.01,2013-05-26 09:57:00,
2013-05-26 05:00:00,52.5,42.6,30.20,East,92,9.0,19.0,69,0.00,,,0.00,VWS V14.01,2013-05-26 10:00:00,
2013-05-26 05:02:00,52.6,42.7,30.20,East,92,5.0,14.0,69,0.00,,,0.00,VWS V14.01,2013-05-26 10:02:00,
2013-05-26 05:07:00,52.6,42.7,30.19,East,90,0.0,15.0,69,0.00,,,0.00,VWS V14.01,2013-05-26 10:07:00,
2013-05-26 05:12:00,52.6,42.7,30.20,East,96,5.0,15.0,69,0.00,,,0.00,VWS V14.01,2013-05-26 10:12:00,
2013-05-26 05:17:00,52.5,42.6,30.19,East,84,10.0,15.0,69,0.00,,,0.00,VWS V14.01,2013-05-26 10:17:00,
2013-05-26 05:22:00,52.6,42.7,30.20,East,86,7.0,15.0,69,0.00,,,0.00,VWS V14.01,2013-05-26 10:22:00,
2013-05-26 05:28:00,52.6,42.7,30.20,ESE,117,11.0,15.0,69,0.00,,,0.00,VWS V14.01,2013-05-26 10:28:00,
2013-05-26 05:30:00,52.6,42.7,30.19,East,93,5.0,15.0,69,0.00,,,0.00,VWS V14.01,2013-05-26 10:30:00,
2013-05-26 05:33:00,52.6,42.7,30.19,East,79,1.0,11.0,69,0.00,,,0.00,VWS V14.01,2013-05-26 10:33:00,
2013-05-26 05:38:00,52.6,42.7,30.19,East,90,9.0,14.0,69,0.00,,,0.00,VWS V14.01,2013-05-26 10:38:00,
2013-05-26 05:43:00,52.6,42.7,30.18,ESE,118,6.0,14.0,69,0.00,,,0.00,VWS V14.01,2013-05-26 10:43:00,
2013-05-26 05:48:00,52.6,42.7,30.19,East,85,10.0,14.0,69,0.00,,,0.00,VWS V14.01,2013-05-26 10:48:00,
2013-05-26 05:53:00,52.6,42.7,30.19,ENE,75,5.0,14.0,69,0.00,,,0.00,VWS V14.01,2013-05-26 10:53:00,
2013-05-26 05:58:00,52.6,42.7,30.19,East,83,4.0,14.0,69,0.00,,,0.00,VWS V14.01,2013-05-26 10:58:00,
2013-05-26 06:00:00,52.6,42.7,30.19,ESE,110,9.0,19.0,69,0.00,,,0.00,VWS V14.01,2013-05-26 11:00:00,
2013-05-26 06:03:00,52.6,42.7,30.19,East,94,5.0,10.0,69,0.00,,,0.00,VWS V14.01,2013-05-26 11:03:00,
2013-05-26 06:08:00,52.6,42.7,30.19,East,80,2.0,13.0,69,0.00,,,0.00,VWS V14.01,2013-05-26 11:08:00,
2013-05-26 06:13:00,52.6,42.7,30.19,East,79,2.0,13.0,69,0.00,,,0.00,VWS V14.01,2013-05-26 11:13:00,
2013-05-26 06:18:00,52.6,42.7,30.19,East,89,5.0,15.0,69,0.00,,,0.00,VWS V14.01,2013-05-26 11:18:00,
2013-05-26 06:23:00,52.7,42.8,30.19,East,96,7.0,15.0,69,0.00,,,0.00,VWS V14.01,2013-05-26 11:23:00,
2013-05-26 06:28:00,52.7,42.8,30.19,ESE,102,7.0,15.0,69,0.00,,,0.00,VWS V14.01,2013-05-26 11:28:00,
2013-05-26 06:30:00,52.7,42.8,30.19,East,98,6.0,15.0,69,0.00,,,0.00,VWS V14.01,2013-05-26 11:30:00,
2013-05-26 06:33:00,52.7,42.8,30.19,NE,54,4.0,11.0,69,0.00,,,0.00,VWS V14.01,2013-05-26 11:33:00,
2013-05-26 06:38:00,52.8,42.9,30.18,ESE,114,9.0,15.0,69,0.00,,,0.00,VWS V14.01,2013-05-26 11:38:00,
2013-05-26 06:43:00,52.8,42.9,30.18,East,92,6.0,15.0,69,0.00,,,0.00,VWS V14.01,2013-05-26 11:43:00,
2013-05-26 06:48:00,52.9,43.0,30.17,East,92,10.0,15.0,69,0.00,,,0.00,VWS V14.01,2013-05-26 11:48:00,
2013-05-26 06:53:00,52.9,43.0,30.17,East,99,5.0,15.0,69,0.00,,,0.00,VWS V14.01,2013-05-26 11:53:00,
2013-05-26 06:58:00,52.9,43.4,30.18,ESE,103,1.0,15.0,70,0.00,,,0.00,VWS V14.01,2013-05-26 11:58:00,
2013-05-26 07:00:00,52.9,43.4,30.17,East,89,6.0,15.0,70,0.00,,,0.00,VWS V14.01,2013-05-26 12:00:00,
2013-05-26 07:03:00,52.8,43.3,30.18,East,85,0.0,12.0,70,0.00,,,0.00,VWS V14.01,2013-05-26 12:03:00,
2013-05-26 07:08:00,52.8,43.3,30.18,East,91,3.0,14.0,70,0.00,,,0.00,VWS V14.01,2013-05-26 12:08:00,
2013-05-26 07:13:00,52.9,43.0,30.18,East,99,11.0,14.0,69,0.00,,,0.00,VWS V14.01,2013-05-26 12:13:00,
2013-05-26 07:18:00,52.9,43.4,30.18,East,87,10.0,14.0,70,0.00,,,0.00,VWS V14.01,2013-05-26 12:18:00,
2013-05-26 07:23:00,53.0,43.1,30.18,East,92,10.0,14.0,69,0.00,,,0.00,VWS V14.01,2013-05-26 12:23:00,
2013-05-26 07:29:00,53.0,43.1,30.18,ESE,102,5.0,14.0,69,0.00,,,0.00,VWS V14.01,2013-05-26 12:29:00,
2013-05-26 07:30:00,53.0,43.1,30.18,East,83,4.0,14.0,69,0.00,,,0.00,VWS V14.01,2013-05-26 12:30:00,
2013-05-26 07:34:00,53.1,42.8,30.18,East,90,0.0,8.0,68,0.00,,,0.00,VWS V14.01,2013-05-26 12:34:00,
2013-05-26 07:39:00,53.1,42.8,30.18,East,98,10.0,11.0,68,0.00,,,0.00,VWS V14.01,2013-05-26 12:39:00,
2013-05-26 07:44:00,53.1,43.2,30.18,ENE,76,5.0,11.0,69,0.00,,,0.00,VWS V14.01,2013-05-26 12:44:00,
2013-05-26 07:49:00,53.0,43.1,30.18,East,79,3.0,14.0,69,0.00,,,0.00,VWS V14.01,2013-05-26 12:49:00,
2013-05-26 07:54:00,53.0,43.1,30.18,East,81,7.0,14.0,69,0.00,,,0.00,VWS V14.01,2013-05-26 12:54:00,
2013-05-26 07:59:00,53.0,42.7,30.18,East,80,0.0,14.0,68,0.00,,,0.00,VWS V14.01,2013-05-26 12:59:00,
2013-05-26 08:00:00,53.0,42.7,30.18,East,97,4.0,14.0,68,0.00,,,0.00,VWS V14.01,2013-05-26 13:00:00,
2013-05-26 08:04:00,53.1,42.5,30.18,ESE,102,3.0,12.0,67,0.00,,,0.00,VWS V14.01,2013-05-26 13:04:00,
2013-05-26 08:09:00,53.1,42.5,30.18,ENE,67,4.0,15.0,67,0.00,,,0.00,VWS V14.01,2013-05-26 13:09:00,
2013-05-26 08:14:00,53.2,42.5,30.18,East,87,3.0,15.0,67,0.00,,,0.00,VWS V14.01,2013-05-26 13:14:00,
2013-05-26 08:19:00,53.2,42.5,30.19,East,98,8.0,15.0,67,0.00,,,0.00,VWS V14.01,2013-05-26 13:19:00,
2013-05-26 08:24:00,53.3,42.6,30.19,ESE,108,12.0,15.0,67,0.00,,,0.00,VWS V14.01,2013-05-26 13:24:00,
2013-05-26 08:29:00,53.3,42.6,30.19,East,79,2.0,15.0,67,0.00,,,0.00,VWS V14.01,2013-05-26 13:29:00,
2013-05-26 08:30:00,53.3,42.6,30.18,East,85,6.0,15.0,67,0.00,,,0.00,VWS V14.01,2013-05-26 13:30:00,
2013-05-26 08:34:00,53.4,42.7,30.18,ENE,75,5.0,9.0,67,0.00,,,0.00,VWS V14.01,2013-05-26 13:34:00,
2013-05-26 08:39:00,53.4,42.7,30.18,East,96,11.0,15.0,67,0.00,,,0.00,VWS V14.01,2013-05-26 13:39:00,
2013-05-26 08:44:00,53.4,42.7,30.18,East,83,2.0,15.0,67,0.00,,,0.00,VWS V14.01,2013-05-26 13:44:00,
2013-05-26 08:49:00,53.5,43.2,30.18,East,88,4.0,15.0,68,0.00,,,0.00,VWS V14.01,2013-05-26 13:49:00,
2013-05-26 08:54:00,53.6,42.9,30.17,ENE,73,4.0,15.0,67,0.00,,,0.00,VWS V14.01,2013-05-26 13:54:00,
2013-05-26 08:59:00,53.7,43.0,30.17,ENE,77,9.0,15.0,67,0.00,,,0.00,VWS V14.01,2013-05-26 13:59:00,
2013-05-26 09:00:00,53.8,43.1,30.16,East,84,4.0,15.0,67,0.00,,,0.00,VWS V14.01,2013-05-26 14:00:00,
2013-05-26 09:04:00,54.0,43.3,30.16,East,94,7.0,13.0,67,0.00,,,0.00,VWS V14.01,2013-05-26 14:04:00,
2013-05-26 09:09:00,54.2,43.5,30.16,East,98,4.0,15.0,67,0.00,,,0.00,VWS V14.01,2013-05-26 14:09:00,
2013-05-26 09:14:00,54.3,43.2,30.15,East,80,9.0,16.0,66,0.00,,,0.00,VWS V14.01,2013-05-26 14:14:00,
2013-05-26 09:19:00,54.4,43.3,30.15,East,83,6.0,18.0,66,0.00,,,0.00,VWS V14.01,2013-05-26 14:19:00,
2013-05-26 09:24:00,54.5,43.0,30.15,ESE,107,6.0,25.0,65,0.00,,,0.00,VWS V14.01,2013-05-26 14:24:00,
2013-05-26 09:29:00,54.7,43.2,30.15,ESE,102,9.0,25.0,65,0.00,,,0.00,VWS V14.01,2013-05-26 14:29:00,
2013-05-26 09:30:00,54.7,43.6,30.15,East,101,6.0,25.0,66,0.00,,,0.00,VWS V14.01,2013-05-26 14:30:00,
2013-05-26 09:34:00,54.8,43.3,30.15,East,80,11.0,16.0,65,0.00,,,0.00,VWS V14.01,2013-05-26 14:34:00,
2013-05-26 09:39:00,54.9,43.4,30.15,ENE,59,5.0,20.0,65,0.00,,,0.00,VWS V14.01,2013-05-26 14:39:00,
2013-05-26 09:45:00,55.2,43.7,30.15,East,101,12.0,20.0,65,0.00,,,0.00,VWS V14.01,2013-05-26 14:45:00,
2013-05-26 09:50:00,55.3,43.3,30.15,East,94,9.0,23.0,64,0.00,,,0.00,VWS V14.01,2013-05-26 14:50:00,
2013-05-26 09:55:00,55.5,43.5,30.15,SE,131,6.0,26.0,64,0.00,,,0.00,VWS V14.01,2013-05-26 14:55:00,
2013-05-26 10:00:00,55.4,43.0,30.15,East,95,6.0,26.0,63,0.00,,,0.00,VWS V14.01,2013-05-26 15:00:00,
2013-05-26 10:05:00,55.5,43.5,30.15,ENE,76,16.0,21.0,64,0.00,,,0.00,VWS V14.01,2013-05-26 15:05:00,
2013-05-26 10:10:00,55.7,44.1,30.15,East,90,5.0,24.0,65,0.00,,,0.00,VWS V14.01,2013-05-26 15:10:00,
2013-05-26 10:15:00,56.0,44.0,30.15,East,90,13.0,25.0,64,0.00,,,0.00,VWS V14.01,2013-05-26 15:15:00,
2013-05-26 10:20:00,56.4,44.4,30.16,ENE,65,6.0,25.0,64,0.00,,,0.00,VWS V14.01,2013-05-26 15:20:00,
2013-05-26 10:25:00,56.7,44.3,30.16,East,98,15.0,25.0,63,0.00,,,0.00,VWS V14.01,2013-05-26 15:25:00,
2013-05-26 10:30:00,56.8,43.9,30.16,ESE,106,8.0,25.0,62,0.00,,,0.00,VWS V14.01,2013-05-26 15:30:00,
2013-05-26 10:35:00,56.6,44.2,30.16,ESE,119,12.0,19.0,63,0.00,,,0.00,VWS V14.01,2013-05-26 15:35:00,
2013-05-26 10:40:00,56.6,44.6,30.16,ENE,75,4.0,19.0,64,0.00,,,0.00,VWS V14.01,2013-05-26 15:40:00,
2013-05-26 10:45:00,56.6,44.6,30.17,ESE,111,14.0,19.0,64,0.00,,,0.00,VWS V14.01,2013-05-26 15:45:00,
2013-05-26 10:50:00,56.2,43.4,30.17,ESE,111,6.0,24.0,62,0.00,,,0.00,VWS V14.01,2013-05-26 15:50:00,
2013-05-26 10:55:00,56.0,43.2,30.17,East,87,14.0,24.0,62,0.00,,,0.00,VWS V14.01,2013-05-26 15:55:00,
2013-05-26 11:00:00,55.9,43.9,30.17,East,96,12.0,24.0,64,0.00,,,0.00,VWS V14.01,2013-05-26 16:00:00,
2013-05-26 11:05:00,56.0,43.6,30.16,ESE,114,9.0,19.0,63,0.00,,,0.00,VWS V14.01,2013-05-26 16:05:00,
2013-05-26 11:10:00,55.9,43.1,30.17,East,82,12.0,19.0,62,0.00,,,0.00,VWS V14.01,2013-05-26 16:10:00,
2013-05-26 11:15:00,55.9,43.1,30.17,SE,139,20.0,20.0,62,0.00,,,0.00,VWS V14.01,2013-05-26 16:15:00,
2013-05-26 11:20:00,55.9,43.5,30.17,ESE,112,16.0,21.0,63,0.00,,,0.00,VWS V14.01,2013-05-26 16:20:00,
2013-05-26 11:25:00,55.8,42.6,30.17,ESE,118,14.0,22.0,61,0.00,,,0.00,VWS V14.01,2013-05-26 16:25:00,
2013-05-26 11:30:00,55.7,42.9,30.17,East,91,7.0,22.0,62,0.00,,,0.00,VWS V14.01,2013-05-26 16:30:00,
2013-05-26 11:35:00,55.6,42.4,30.17,ESE,112,17.0,18.0,61,0.00,,,0.00,VWS V14.01,2013-05-26 16:35:00,
2013-05-26 11:40:00,55.3,41.7,30.17,East,98,11.0,21.0,60,0.00,,,0.00,VWS V14.01,2013-05-26 16:40:00,
2013-05-26 11:45:00,55.2,42.0,30.17,East,100,3.0,21.0,61,0.00,,,0.00,VWS V14.01,2013-05-26 16:45:00,
2013-05-26 11:50:00,55.0,42.2,30.17,WSW,245,12.0,23.0,62,0.00,,,0.00,VWS V14.01,2013-05-26 16:50:00,
2013-05-26 11:55:00,55.0,41.8,30.17,East,94,10.0,23.0,61,0.00,,,0.00,VWS V14.01,2013-05-26 16:55:00,
2013-05-26 12:00:00,54.8,42.0,30.18,East,85,13.0,23.0,62,0.00,,,0.00,VWS V14.01,2013-05-26 17:00:00,
2013-05-26 12:01:00,54.8,42.0,30.18,East,94,12.0,23.0,62,0.00,,,0.00,VWS V14.01,2013-05-26 17:01:00,
2013-05-26 12:06:00,54.8,42.0,30.18,ESE,108,11.0,19.0,62,0.00,,,0.00,VWS V14.01,2013-05-26 17:06:00,
2013-05-26 12:11:00,54.7,42.0,30.18,East,81,5.0,20.0,62,0.00,,,0.00,VWS V14.01,2013-05-26 17:11:00,
2013-05-26 12:16:00,54.7,42.4,30.18,East,93,6.0,20.0,63,0.00,,,0.00,VWS V14.01,2013-05-26 17:16:00,
2013-05-26 12:21:00,54.7,42.8,30.18,East,98,4.0,20.0,64,0.00,,,0.00,VWS V14.01,2013-05-26 17:21:00,
2013-05-26 12:26:00,54.6,42.3,30.17,East,88,5.0,20.0,63,0.00,,,0.00,VWS V14.01,2013-05-26 17:26:00,
2013-05-26 12:30:00,54.6,42.7,30.17,ESE,113,16.0,20.0,64,0.00,,,0.00,VWS V14.01,2013-05-26 17:30:00,
2013-05-26 12:31:00,54.6,42.7,30.17,East,98,9.0,11.0,64,0.00,,,0.00,VWS V14.01,2013-05-26 17:31:00,
2013-05-26 12:36:00,54.7,42.8,30.17,NE,48,6.0,19.0,64,0.00,,,0.00,VWS V14.01,2013-05-26 17:36:00,
2013-05-26 12:41:00,54.8,42.5,30.17,East,100,9.0,19.0,63,0.00,,,0.00,VWS V14.01,2013-05-26 17:41:00,
2013-05-26 12:46:00,54.9,43.4,30.17,East,101,10.0,19.0,65,0.00,,,0.00,VWS V14.01,2013-05-26 17:46:00,
2013-05-26 12:51:00,55.2,43.2,30.17,NE,45,5.0,19.0,64,0.00,,,0.00,VWS V14.01,2013-05-26 17:51:00,
2013-05-26 12:56:00,55.1,43.2,30.17,East,98,6.0,19.0,64,0.00,,,0.00,VWS V14.01,2013-05-26 17:56:00,
2013-05-26 13:00:00,55.0,43.1,30.17,East,98,6.0,21.0,64,0.00,,,0.00,VWS V14.01,2013-05-26 18:00:00,
2013-05-26 13:01:00,55.0,43.1,30.17,East,100,17.0,17.0,64,0.00,,,0.00,VWS V14.01,2013-05-26 18:01:00,
2013-05-26 13:06:00,55.1,43.6,30.17,ENE,78,14.0,22.0,65,0.00,,,0.00,VWS V14.01,2013-05-26 18:06:00,
2013-05-26 13:11:00,55.1,43.6,30.17,South,169,9.0,22.0,65,0.00,,,0.00,VWS V14.01,2013-05-26 18:11:00,
2013-05-26 13:16:00,54.9,43.4,30.17,East,81,7.0,22.0,65,0.00,,,0.00,VWS V14.01,2013-05-26 18:16:00,
2013-05-26 13:21:00,55.0,43.9,30.16,ENE,70,3.0,22.0,66,0.00,,,0.00,VWS V14.01,2013-05-26 18:21:00,
2013-05-26 13:26:00,55.0,44.3,30.16,ENE,71,2.0,22.0,67,0.00,,,0.00,VWS V14.01,2013-05-26 18:26:00,
2013-05-26 13:30:00,55.1,44.3,30.16,East,87,12.0,24.0,67,0.00,,,0.00,VWS V14.01,2013-05-26 18:30:00,
2013-05-26 13:31:00,55.1,44.3,30.16,ESE,109,7.0,17.0,67,0.00,,,0.00,VWS V14.01,2013-05-26 18:31:00,
2013-05-26 13:36:00,55.1,44.3,30.16,East,85,9.0,26.0,67,0.00,,,0.00,VWS V14.01,2013-05-26 18:36:00,
2013-05-26 13:41:00,55.1,44.0,30.14,SE,124,6.0,26.0,66,0.00,,,0.00,VWS V14.01,2013-05-26 18:41:00,
2013-05-26 13:46:00,55.4,45.0,30.14,NE,52,16.0,29.0,68,0.00,,,0.00,VWS V14.01,2013-05-26 18:46:00,
2013-05-26 13:51:00,55.5,43.9,30.15,ENE,71,7.0,29.0,65,0.00,,,0.00,VWS V14.01,2013-05-26 18:51:00,
2013-05-26 13:56:00,55.5,44.7,30.14,ESE,123,12.0,29.0,67,0.00,,,0.00,VWS V14.01,2013-05-26 18:56:00,
2013-05-26 14:00:00,55.7,44.9,30.13,ENE,76,4.0,29.0,67,0.00,,,0.00,VWS V14.01,2013-05-26 19:00:00,
2013-05-26 14:01:00,55.7,44.5,30.13,NE,51,6.0,17.0,66,0.00,,,0.00,VWS V14.01,2013-05-26 19:01:00,
2013-05-26 14:06:00,55.6,44.0,30.13,East,81,4.0,19.0,65,0.00,,,0.00,VWS V14.01,2013-05-26 19:06:00,
2013-05-26 14:11:00,55.6,44.4,30.14,ESE,104,8.0,19.0,66,0.00,,,0.00,VWS V14.01,2013-05-26 19:11:00,
2013-05-26 14:17:00,55.2,44.0,30.14,ESE,104,6.0,19.0,66,0.00,,,0.00,VWS V14.01,2013-05-26 19:17:00,
2013-05-26 14:22:00,54.9,44.2,30.14,East,95,19.0,20.0,67,0.00,,,0.00,VWS V14.01,2013-05-26 19:22:00,
2013-05-26 14:27:00,54.7,44.0,30.13,East,99,14.0,23.0,67,0.00,,,0.00,VWS V14.01,2013-05-26 19:27:00,
2013-05-26 14:30:00,54.6,44.3,30.13,SE,130,5.0,23.0,68,0.00,,,0.00,VWS V14.01,2013-05-26 19:30:00,
2013-05-26 14:32:00,54.6,44.3,30.13,East,90,12.0,19.0,68,0.00,,,0.00,VWS V14.01,2013-05-26 19:32:00,
2013-05-26 14:37:00,54.5,44.2,30.13,East,84,7.0,22.0,68,0.00,,,0.00,VWS V14.01,2013-05-26 19:37:00,
2013-05-26 14:42:00,54.5,44.5,30.13,ESE,109,16.0,22.0,69,0.00,,,0.00,VWS V14.01,2013-05-26 19:42:00,
2013-05-26 14:47:00,54.4,44.8,30.12,East,96,5.0,22.0,70,0.00,,,0.00,VWS V14.01,2013-05-26 19:47:00,
2013-05-26 14:52:00,54.6,45.0,30.11,East,91,7.0,22.0,70,0.00,,,0.00,VWS V14.01,2013-05-26 19:52:00,
2013-05-26 14:57:00,54.8,45.6,30.11,NE,50,7.0,22.0,71,0.00,,,0.00,VWS V14.01,2013-05-26 19:57:00,
2013-05-26 15:00:00,55.0,45.8,30.10,East,80,9.0,22.0,71,0.00,,,0.00,VWS V14.01,2013-05-26 20:00:00,
2013-05-26 15:02:00,55.1,45.9,30.10,East,92,9.0,19.0,71,0.00,,,0.00,VWS V14.01,2013-05-26 20:02:00,
2013-05-26 15:07:00,55.2,46.0,30.09,ENE,65,11.0,29.0,71,0.00,,,0.00,VWS V14.01,2013-05-26 20:07:00,
2013-05-26 15:12:00,55.1,46.2,30.09,ENE,76,6.0,29.0,72,0.00,,,0.00,VWS V14.01,2013-05-26 20:12:00,
2013-05-26 15:17:00,55.2,46.3,30.09,ESE,109,16.0,29.0,72,0.00,,,0.00,VWS V14.01,2013-05-26 20:17:00,
2013-05-26 15:22:00,55.2,46.7,30.09,East,83,15.0,29.0,73,0.00,,,0.00,VWS V14.01,2013-05-26 20:22:00,
2013-05-26 15:27:00,55.5,47.0,30.09,ENE,75,11.0,29.0,73,0.00,,,0.00,VWS V14.01,2013-05-26 20:27:00,
2013-05-26 15:30:00,55.7,47.2,30.09,East,87,14.0,29.0,73,0.00,,,0.00,VWS V14.01,2013-05-26 20:30:00,
2013-05-26 15:32:00,55.8,47.3,30.09,ENE,78,7.0,14.0,73,0.00,,,0.00,VWS V14.01,2013-05-26 20:32:00,
2013-05-26 15:37:00,55.6,47.1,30.10,East,85,11.0,18.0,73,0.00,,,0.00,VWS V14.01,2013-05-26 20:37:00,
2013-05-26 15:42:00,55.6,47.1,30.10,East,87,4.0,23.0,73,0.00,,,0.00,VWS V14.01,2013-05-26 20:42:00,
2013-05-26 15:47:00,55.8,47.3,30.10,ESE,111,14.0,24.0,73,0.00,,,0.00,VWS V14.01,2013-05-26 20:47:00,
2013-05-26 15:52:00,55.8,47.3,30.11,ENE,77,8.0,27.0,73,0.00,,,0.00,VWS V14.01,2013-05-26 20:52:00,
2013-05-26 15:57:00,55.7,47.2,30.11,ENE,77,9.0,27.0,73,0.00,,,0.00,VWS V14.01,2013-05-26 20:57:00,
2013-05-26 16:00:00,55.7,47.5,30.11,ESE,116,6.0,27.0,74,0.00,,,0.00,VWS V14.01,2013-05-26 21:00:00,
2013-05-26 16:02:00,55.7,47.5,30.11,ESE,110,4.0,18.0,74,0.00,,,0.00,VWS V14.01,2013-05-26 21:02:00,
2013-05-26 16:07:00,55.6,47.5,30.11,ESE,116,17.0,21.0,74,0.00,,,0.00,VWS V14.01,2013-05-26 21:07:00,
2013-05-26 16:12:00,55.7,47.5,30.12,ESE,117,5.0,21.0,74,0.00,,,0.00,VWS V14.01,2013-05-26 21:12:00,
2013-05-26 16:17:00,55.6,47.5,30.12,ESE,108,11.0,21.0,74,0.00,,,0.00,VWS V14.01,2013-05-26 21:17:00,
2013-05-26 16:22:00,55.6,47.8,30.11,NE,56,5.0,21.0,75,0.00,,,0.00,VWS V14.01,2013-05-26 21:22:00,
2013-05-26 16:27:00,55.5,47.4,30.11,NE,55,2.0,21.0,74,0.00,,,0.00,VWS V14.01,2013-05-26 21:27:00,
2013-05-26 16:30:00,55.4,47.6,30.11,East,81,4.0,21.0,75,0.00,,,0.00,VWS V14.01,2013-05-26 21:30:00,
2013-05-26 16:33:00,55.4,47.6,30.11,ESE,123,7.0,16.0,75,0.00,,,0.00,VWS V14.01,2013-05-26 21:33:00,
2013-05-26 16:38:00,55.4,47.6,30.10,ENE,73,6.0,19.0,75,0.00,,,0.00,VWS V14.01,2013-05-26 21:38:00,
2013-05-26 16:43:00,55.4,47.6,30.10,ESE,117,7.0,19.0,75,0.00,,,0.00,VWS V14.01,2013-05-26 21:43:00,
2013-05-26 16:48:00,55.5,47.7,30.10,ESE,106,7.0,20.0,75,0.00,,,0.00,VWS V14.01,2013-05-26 21:48:00,
2013-05-26 16:53:00,55.7,47.9,30.10,East,83,7.0,22.0,75,0.00,,,0.00,VWS V14.01,2013-05-26 21:53:00,
2013-05-26 16:58:00,55.8,48.0,30.10,East,82,0.0,22.0,75,0.00,,,0.00,VWS V14.01,2013-05-26 21:58:00,
2013-05-26 17:00:00,55.9,48.1,30.10,SE,131,5.0,22.0,75,0.00,,,0.00,VWS V14.01,2013-05-26 22:00:00,
2013-05-26 17:03:00,55.9,47.7,30.10,NE,48,9.0,16.0,74,0.00,,,0.00,VWS V14.01,2013-05-26 22:03:00,
2013-05-26 17:08:00,56.1,47.9,30.09,ENE,65,4.0,16.0,74,0.00,,,0.00,VWS V14.01,2013-05-26 22:08:00,
2013-05-26 17:13:00,56.3,48.1,30.09,ESE,110,5.0,16.0,74,0.00,,,0.00,VWS V14.01,2013-05-26 22:13:00,
2013-05-26 17:18:00,56.4,48.2,30.09,ENE,77,3.0,16.0,74,0.00,,,0.00,VWS V14.01,2013-05-26 22:18:00,
2013-05-26 17:23:00,56.6,48.4,30.09,ESE,103,10.0,16.0,74,0.00,,,0.00,VWS V14.01,2013-05-26 22:23:00,
2013-05-26 17:28:00,56.8,48.2,30.09,ENE,63,4.0,18.0,73,0.00,,,0.00,VWS V14.01,2013-05-26 22:28:00,
2013-05-26 17:30:00,56.9,48.3,30.09,East,87,1.0,18.0,73,0.00,,,0.00,VWS V14.01,2013-05-26 22:30:00,
2013-05-26 17:33:00,56.9,48.3,30.09,East,93,5.0,12.0,73,0.00,,,0.00,VWS V14.01,2013-05-26 22:33:00,
2013-05-26 17:38:00,56.9,48.3,30.09,ESE,120,3.0,15.0,73,0.00,,,0.00,VWS V14.01,2013-05-26 22:38:00,
2013-05-26 17:43:00,57.0,48.4,30.09,East,79,11.0,16.0,73,0.00,,,0.00,VWS V14.01,2013-05-26 22:43:00,
2013-05-26 17:48:00,57.1,48.5,30.09,East,79,13.0,16.0,73,0.00,,,0.00,VWS V14.01,2013-05-26 22:48:00,
2013-05-26 17:53:00,57.0,48.4,30.09,East,81,7.0,17.0,73,0.00,,,0.00,VWS V14.01,2013-05-26 22:53:00,
2013-05-26 17:58:00,57.0,48.4,30.09,East,99,6.0,21.0,73,0.00,,,0.00,VWS V14.01,2013-05-26 22:58:00,
2013-05-26 18:00:00,57.0,48.4,30.09,East,86,5.0,21.0,73,0.00,,,0.00,VWS V14.01,2013-05-26 23:00:00,
2013-05-26 18:03:00,57.0,48.4,30.09,ENE,68,9.0,14.0,73,0.00,,,0.00,VWS V14.01,2013-05-26 23:03:00,
2013-05-26 18:08:00,56.9,48.3,30.09,East,97,1.0,21.0,73,0.00,,,0.00,VWS V14.01,2013-05-26 23:08:00,
2013-05-26 18:13:00,57.0,48.8,30.09,East,87,9.0,21.0,74,0.00,,,0.00,VWS V14.01,2013-05-26 23:13:00,
2013-05-26 18:18:00,57.0,48.8,30.09,ENE,75,5.0,21.0,74,0.00,,,0.00,VWS V14.01,2013-05-26 23:18:00,
2013-05-26 18:23:00,56.9,48.7,30.10,ENE,70,4.0,21.0,74,0.00,,,0.00,VWS V14.01,2013-05-26 23:23:00,
2013-05-26 18:28:00,56.9,48.7,30.10,East,100,9.0,23.0,74,0.00,,,0.00,VWS V14.01,2013-05-26 23:28:00,
2013-05-26 18:30:00,56.9,48.7,30.11,ENE,70,17.0,23.0,74,0.00,,,0.00,VWS V14.01,2013-05-26 23:30:00,
2013-05-26 18:33:00,56.8,48.6,30.11,East,84,4.0,17.0,74,0.00,,,0.00,VWS V14.01,2013-05-26 23:33:00,
2013-05-26 18:39:00,56.7,48.5,30.11,ESE,106,14.0,17.0,74,0.00,,,0.00,VWS V14.01,2013-05-26 23:39:00,
2013-05-26 18:44:00,56.7,48.5,30.11,East,101,11.0,17.0,74,0.00,,,0.00,VWS V14.01,2013-05-26 23:44:00,
2013-05-26 18:49:00,56.7,48.5,30.11,East,83,4.0,17.0,74,0.00,,,0.00,VWS V14.01,2013-05-26 23:49:00,
2013-05-26 18:54:00,56.7,48.5,30.11,East,92,0.0,17.0,74,0.00,,,0.00,VWS V14.01,2013-05-26 23:54:00,
2013-05-26 18:59:00,56.7,48.5,30.10,East,100,0.0,18.0,74,0.00,,,0.00,VWS V14.01,2013-05-26 23:59:00,
2013-05-26 19:00:00,56.7,48.5,30.10,East,88,8.0,18.0,74,0.00,,,0.00,VWS V14.01,2013-05-27 00:00:00,
2013-05-26 19:04:00,56.7,48.5,30.11,East,79,0.0,16.0,74,0.00,,,0.00,VWS V14.01,2013-05-27 00:04:00,
2013-05-26 19:09:00,56.8,48.6,30.11,East,83,8.0,16.0,74,0.00,,,0.00,VWS V14.01,2013-05-27 00:09:00,
2013-05-26 19:14:00,56.8,48.6,30.11,East,90,4.0,16.0,74,0.00,,,0.00,VWS V14.01,2013-05-27 00:14:00,
2013-05-26 19:19:00,56.9,48.7,30.11,East,92,10.0,16.0,74,0.00,,,0.00,VWS V14.01,2013-05-27 00:19:00,
2013-05-26 19:24:00,56.9,48.7,30.11,ENE,66,5.0,16.0,74,0.00,,,0.00,VWS V14.01,2013-05-27 00:24:00,
2013-05-26 19:29:00,56.9,48.7,30.11,ESE,108,7.0,16.0,74,0.00,,,0.00,VWS V14.01,2013-05-27 00:29:00,
2013-05-26 19:30:00,56.9,48.7,30.11,East,90,6.0,16.0,74,0.00,,,0.00,VWS V14.01,2013-05-27 00:30:00,
2013-05-26 19:34:00,56.9,48.7,30.11,East,94,1.0,12.0,74,0.00,,,0.00,VWS V14.01,2013-05-27 00:34:00,
2013-05-26 19:39:00,56.9,48.7,30.11,East,97,12.0,13.0,74,0.00,,,0.00,VWS V14.01,2013-05-27 00:39:00,
2013-05-26 19:44:00,56.9,48.7,30.11,SE,134,11.0,17.0,74,0.00,,,0.00,VWS V14.01,2013-05-27 00:44:00,
2013-05-26 19:49:00,56.9,49.1,30.11,ESE,102,10.0,17.0,75,0.00,,,0.00,VWS V14.01,2013-05-27 00:49:00,
2013-05-26 19:54:00,56.9,48.7,30.11,East,92,9.0,17.0,74,0.00,,,0.00,VWS V14.01,2013-05-27 00:54:00,
2013-05-26 19:59:00,56.9,48.7,30.11,East,96,5.0,17.0,74,0.00,,,0.00,VWS V14.01,2013-05-27 00:59:00,
2013-05-26 20:00:00,56.9,48.7,30.11,ESE,103,5.0,17.0,74,0.00,,,0.00,VWS V14.01,2013-05-27 01:00:00,
2013-05-26 20:04:00,56.8,49.0,30.11,East,93,4.0,10.0,75,0.00,,,0.00,VWS V14.01,2013-05-27 01:04:00,
2013-05-26 20:09:00,56.8,49.0,30.11,East,80,0.0,15.0,75,0.00,,,0.00,VWS V14.01,2013-05-27 01:09:00,
2013-05-26 20:14:00,56.7,48.9,30.10,ENE,71,5.0,15.0,75,0.00,,,0.00,VWS V14.01,2013-05-27 01:14:00,
2013-05-26 20:19:00,56.7,48.9,30.10,East,85,2.0,15.0,75,0.00,,,0.00,VWS V14.01,2013-05-27 01:19:00,
2013-05-26 20:24:00,56.7,48.9,30.10,East,100,5.0,15.0,75,0.00,,,0.00,VWS V14.01,2013-05-27 01:24:00,
2013-05-26 20:29:00,56.7,48.9,30.10,ENE,68,2.0,15.0,75,0.00,,,0.00,VWS V14.01,2013-05-27 01:29:00,
2013-05-26 20:30:00,56.7,48.9,30.10,East,98,6.0,15.0,75,0.00,,,0.00,VWS V14.01,2013-05-27 01:30:00,
2013-05-26 20:34:00,56.7,48.9,30.10,ENE,59,1.0,12.0,75,0.00,,,0.00,VWS V14.01,2013-05-27 01:34:00,
2013-05-26 20:39:00,56.7,48.9,30.10,East,87,1.0,12.0,75,0.00,,,0.00,VWS V14.01,2013-05-27 01:39:00,
2013-05-26 20:45:00,56.7,48.9,30.10,East,85,4.0,12.0,75,0.00,,,0.00,VWS V14.01,2013-05-27 01:45:00,
2013-05-26 20:50:00,56.8,49.0,30.10,East,96,5.0,12.0,75,0.00,,,0.00,VWS V14.01,2013-05-27 01:50:00,
2013-05-26 20:55:00,56.8,49.0,30.10,East,95,10.0,12.0,75,0.00,,,0.00,VWS V14.01,2013-05-27 01:55:00,
2013-05-26 21:00:00,56.8,49.0,30.10,ESE,110,7.0,12.0,75,0.00,,,0.00,VWS V14.01,2013-05-27 02:00:00,
2013-05-26 21:05:00,56.8,49.0,30.10,ENE,78,6.0,12.0,75,0.00,,,0.00,VWS V14.01,2013-05-27 02:05:00,
2013-05-26 21:10:00,56.8,48.6,30.10,East,91,1.0,17.0,74,0.00,,,0.00,VWS V14.01,2013-05-27 02:10:00,
2013-05-26 21:15:00,56.8,48.6,30.10,East,87,9.0,17.0,74,0.00,,,0.00,VWS V14.01,2013-05-27 02:15:00,
2013-05-26 21:20:00,56.9,48.7,30.10,ENE,73,2.0,17.0,74,0.00,,,0.00,VWS V14.01,2013-05-27 02:20:00,
2013-05-26 21:25:00,56.8,48.6,30.09,East,92,7.0,17.0,74,0.00,,,0.00,VWS V14.01,2013-05-27 02:25:00,
2013-05-26 21:30:00,56.9,48.7,30.10,East,92,1.0,17.0,74,0.00,,,0.00,VWS V14.01,2013-05-27 02:30:00,
2013-05-26 21:35:00,56.8,48.6,30.10,NE,56,9.0,12.0,74,0.00,,,0.00,VWS V14.01,2013-05-27 02:35:00,
2013-05-26 21:40:00,56.8,48.6,30.10,East,81,6.0,14.0,74,0.00,,,0.00,VWS V14.01,2013-05-27 02:40:00,
2013-05-26 21:45:00,56.8,48.6,30.09,East,91,6.0,14.0,74,0.00,,,0.00,VWS V14.01,2013-05-27 02:45:00,
2013-05-26 21:50:00,56.9,48.3,30.10,ESE,117,13.0,16.0,73,0.00,,,0.00,VWS V14.01,2013-05-27 02:50:00,
2013-05-26 21:55:00,56.9,48.3,30.09,East,90,9.0,17.0,73,0.00,,,0.00,VWS V14.01,2013-05-27 02:55:00,
2013-05-26 22:00:00,57.0,48.4,30.08,ENE,67,7.0,19.0,73,0.00,,,0.00,VWS V14.01,2013-05-27 03:00:00,
2013-05-26 22:05:00,57.0,48.4,30.08,East,90,5.0,12.0,73,0.00,,,0.00,VWS V14.01,2013-05-27 03:05:00,
2013-05-26 22:10:00,57.0,48.4,30.08,ESE,109,6.0,12.0,73,0.00,,,0.00,VWS V14.01,2013-05-27 03:10:00,
2013-05-26 22:15:00,57.1,48.2,30.08,ENE,70,7.0,13.0,72,0.00,,,0.00,VWS V14.01,2013-05-27 03:15:00,
2013-05-26 22:20:00,57.1,48.2,30.08,East,88,0.0,16.0,72,0.00,,,0.00,VWS V14.01,2013-05-27 03:20:00,
2013-05-26 22:25:00,57.1,48.2,30.07,East,90,7.0,16.0,72,0.00,,,0.00,VWS V14.01,2013-05-27 03:25:00,
2013-05-26 22:30:00,57.1,48.2,30.07,East,79,7.0,16.0,72,0.00,,,0.00,VWS V14.01,2013-05-27 03:30:00,
2013-05-26 22:35:00,57.1,48.2,30.08,ESE,102,6.0,15.0,72,0.00,,,0.00,VWS V14.01,2013-05-27 03:35:00,
2013-05-26 22:41:00,57.1,48.2,30.08,East,84,9.0,19.0,72,0.00,,,0.00,VWS V14.01,2013-05-27 03:41:00,
2013-05-26 22:46:00,57.1,48.5,30.08,SE,137,9.0,19.0,73,0.00,,,0.00,VWS V14.01,2013-05-27 03:46:00,
2013-05-26 22:51:00,57.2,48.3,30.07,ENE,76,0.0,19.0,72,0.00,,,0.00,VWS V14.01,2013-05-27 03:51:00,
2013-05-26 22:56:00,57.2,48.3,30.07,East,84,5.0,19.0,72,0.00,,,0.00,VWS V14.01,2013-05-27 03:56:00,
2013-05-26 23:00:00,57.2,48.3,30.06,East,79,11.0,19.0,72,0.00,,,0.00,VWS V14.01,2013-05-27 04:00:00,
2013-05-26 23:01:00,57.2,48.3,30.06,East,79,11.0,19.0,72,0.00,,,0.00,VWS V14.01,2013-05-27 04:01:00,
2013-05-26 23:02:00,57.2,48.3,30.06,East,100,7.0,13.0,72,0.00,,,0.00,VWS V14.01,2013-05-27 04:02:00,
2013-05-26 23:04:00,57.2,48.3,30.06,East,100,5.0,14.0,72,0.00,,,0.00,VWS V14.01,2013-05-27 04:04:00,
2013-05-26 23:09:00,57.3,48.4,30.05,East,82,1.0,14.0,72,0.00,,,0.00,VWS V14.01,2013-05-27 04:09:00,
2013-05-26 23:14:00,57.2,48.3,30.03,ENE,77,3.0,15.0,72,0.00,,,0.00,VWS V14.01,2013-05-27 04:14:00,
2013-05-26 23:19:00,57.3,48.4,30.03,East,97,6.0,15.0,72,0.00,,,0.00,VWS V14.01,2013-05-27 04:19:00,
2013-05-26 23:24:00,57.2,48.3,30.04,ESE,109,6.0,15.0,72,0.00,,,0.00,VWS V14.01,2013-05-27 04:24:00,
2013-05-26 23:29:00,57.2,48.3,30.04,ESE,104,12.0,15.0,72,0.00,,,0.00,VWS V14.01,2013-05-27 04:29:00,
2013-05-26 23:30:00,57.2,48.3,30.04,East,101,8.0,15.0,72,0.00,,,0.00,VWS V14.01,2013-05-27 04:30:00,
2013-05-26 23:34:00,57.2,48.3,30.04,ESE,110,6.0,13.0,72,0.00,,,0.00,VWS V14.01,2013-05-27 04:34:00,
2013-05-26 23:40:00,57.2,48.6,30.03,East,88,9.0,17.0,73,0.00,,,0.00,VWS V14.01,2013-05-27 04:40:00,
2013-05-26 23:45:00,57.1,48.2,30.02,East,83,6.0,17.0,72,0.00,,,0.00,VWS V14.01,2013-05-27 04:45:00,
2013-05-26 23:50:00,57.2,48.3,30.01,East,94,5.0,17.0,72,0.00,,,0.00,VWS V14.01,2013-05-27 04:50:00,
2013-05-26 23:55:00,57.2,48.3,30.01,East,96,3.0,17.0,72,0.00,,,0.00,VWS V14.01,2013-05-27 04:55:00,